Leadville, CO

1:47 AM MST on November 18, 2019 (GMT -0700)
Lake County

Weather History for KLXV - September, 2019

Change the Weather History Date:

Friday, September 6, 2019

  Actual Average Record
Temperature  
Mean Temperature 56 °F -  
Max Temperature 73 °F 64 °F 80 °F (1978)
Min Temperature 39 °F 33 °F 25 °F (1992)
Degree Days  
Heating Degree Days 9 16  
Month to date heating degree days 48 94  
Since 1 July heating degree days 641 816  
Cooling Degree Days 0 0  
Month to date cooling degree days 0 0  
Year to date cooling degree days 0 0  
Growing Degree Days 6 (Base 50)    
Moisture  
Dew Point 43 °F    
Average Humidity 62    
Maximum Humidity 93    
Minimum Humidity 31    
Precipitation  
Precipitation 0.09 in 0.04 in 0.22 in (2003)
Month to date precipitation 0.13 0.28  
Year to date precipitation 12.67 9.23  
Sea Level Pressure  
Sea Level Pressure 30.28 in    
Wind  
Wind Speed 5 mph (ENE)    
Max Wind Speed 21 mph    
Max Gust Speed 30 mph    
Visibility 9 miles    
Events Rain , Thunderstorm    
T = Trace of Precipitation, MM = Missing Value Source: NWS Daily Summary

Daily Weather History Graph

Daily Weather History Graph

Search for Another Location

Airport or City:

Astronomy

Sep. 06, 2019 Rise Set
Actual Time 6:38 AM MDT 7:28 PM MDT
Civil Twilight 6:11 AM MDT 7:55 PM MDT
Nautical Twilight 5:38 AM MDT 8:27 PM MDT
Astronomical Twilight 5:05 AM MDT 9:00 PM MDT
Moon 2:46 PM MDT (9/6) No Moon Set
Length of Visible Light 13h 44m
Length of Day
12h 50m
First Quarter, 56% of the Moon is Illuminated
Sep 6
First Quarter
Sep 13
Full
Sep 21
Last Quarter
Sep 28
New
Oct 5
First Quarter

Hourly Weather History & Observations

Time (MDT) Temp. Windchill Dew Point Humidity Pressure Visibility Wind Dir Wind Speed Gust Speed Precip Events Conditions
12:53 AM 46.0 °F 43.1 °F 39.9 °F 79% 30.14 in 10.0 mi East 5.8 mph - N/A   Clear
1:53 AM 42.1 °F 39.2 °F 39.0 °F 89% 30.16 in 10.0 mi East 4.6 mph - N/A   Overcast
2:53 AM 45.0 °F 43.5 °F 41.0 °F 86% 30.15 in 10.0 mi WNW 3.5 mph - N/A   Partly Cloudy
3:53 AM 45.0 °F - 42.1 °F 90% 30.17 in 10.0 mi Calm Calm - 0.00 in   Overcast
4:53 AM 45.0 °F 42.6 °F 41.0 °F 86% 30.22 in 10.0 mi NE 4.6 mph - N/A   Overcast
5:53 AM 41.0 °F - 39.0 °F 93% 30.24 in 10.0 mi Calm Calm - N/A   Partly Cloudy
6:53 AM 39.9 °F - 37.9 °F 93% 30.27 in 10.0 mi Calm Calm - N/A   Clear
7:53 AM 44.1 °F - 39.9 °F 85% 30.26 in 10.0 mi Calm Calm - N/A   Clear
8:53 AM 52.0 °F - 42.1 °F 69% 30.22 in 10.0 mi Calm Calm - N/A   Clear
9:53 AM 57.0 °F - 43.0 °F 59% 30.19 in 10.0 mi Calm Calm - N/A   Clear
10:53 AM 59.0 °F - 41.0 °F 51% 30.19 in 10.0 mi SSW 6.9 mph - N/A   Clear
11:53 AM 68.0 °F - 41.0 °F 37% 30.13 in 8.0 mi South 17.3 mph 20.7 mph N/A   Scattered Clouds
12:34 PM 70.0 °F - 39.0 °F 32% 30.57 in 10.0 mi South 18.4 mph 27.6 mph N/A Thunderstorm Clear
12:53 PM 71.1 °F - 39.9 °F 32% 30.04 in 10.0 mi South 20.7 mph 28.8 mph N/A Thunderstorm Clear
1:22 PM 72.0 °F - 39.0 °F 30% 30.55 in 10.0 mi South 15.0 mph 25.3 mph N/A   Clear
1:36 PM 72.0 °F - 37.9 °F 29% 30.55 in 10.0 mi South 10.4 mph - N/A Thunderstorm Partly Cloudy
1:51 PM 66.2 °F - 39.2 °F 37% 30.56 in 10.0 mi North 15.0 mph 24.2 mph N/A Thunderstorm Thunderstorm
1:53 PM 64.9 °F - 39.9 °F 40% 30.09 in 10.0 mi North 17.3 mph 29.9 mph N/A Thunderstorm Thunderstorm
2:33 PM 60.1 °F - 41.0 °F 49% 30.56 in 10.0 mi NNE 5.8 mph - 0.00 in Thunderstorm Mostly Cloudy
2:53 PM 59.0 °F - 43.0 °F 55% 30.10 in 10.0 mi NNE 5.8 mph - 0.00 in Rain , Thunderstorm Light Rain
3:20 PM 52.0 °F - 46.9 °F 83% 30.55 in 2.5 mi East 6.9 mph - 0.01 in Rain , Thunderstorm Light Rain
3:29 PM 52.0 °F - 46.0 °F 80% 30.56 in 6.0 mi ESE 6.9 mph - 0.02 in Rain , Thunderstorm Light Rain
3:53 PM 55.0 °F - 48.0 °F 77% 30.13 in 10.0 mi Variable 4.6 mph - 0.02 in Thunderstorm Scattered Clouds
4:18 PM 54.0 °F - 46.9 °F 77% 30.55 in 8.0 mi Variable 5.8 mph - 0.00 in Rain Light Rain
4:30 PM 55.9 °F - 48.0 °F 75% 30.55 in 1.8 mi Variable 5.8 mph - 0.01 in Rain Rain
4:36 PM 57.9 °F - 50.0 °F 75% 30.56 in 3.0 mi Variable 3.5 mph - 0.03 in Rain Light Rain
4:53 PM 59.0 °F - 50.0 °F 72% 30.10 in 10.0 mi North 6.9 mph - 0.04 in   Mostly Cloudy
5:53 PM 57.9 °F - 46.0 °F 65% 30.11 in 10.0 mi SSE 3.5 mph - N/A   Scattered Clouds
6:53 PM 55.0 °F - 48.9 °F 80% 30.13 in 7.0 mi South 5.8 mph - 0.00 in Rain Light Rain
7:53 PM 51.1 °F - 44.1 °F 77% 30.16 in 10.0 mi NE 5.8 mph - 0.00 in   Scattered Clouds
8:53 PM 52.0 °F - 43.0 °F 71% 30.12 in 10.0 mi NE 5.8 mph - N/A   Mostly Cloudy
9:40 PM 50.0 °F - 44.1 °F 80% 30.58 in 10.0 mi North 4.6 mph - N/A Thunderstorm Mostly Cloudy
9:53 PM 50.0 °F - 44.1 °F 80% 30.13 in 10.0 mi North 6.9 mph - N/A   Overcast
10:53 PM 50.0 °F - 43.0 °F 77% 30.10 in 10.0 mi NE 6.9 mph - 0.00 in   Overcast
11:53 PM 48.9 °F - 44.1 °F 83% 30.02 in 10.0 mi Calm Calm - N/A   Overcast